Home   Weather   Ufa   Past weeks

Flag for Russia Past Weather in Ufa, Russia — Yesterday and Last 2 Weeks

Now
3 °F

Light snow. Low clouds.


Feels Like: -12 °F
Forecast: 12 / 23 °F
Wind: 10 mph from South

Location: Ufa

Current Time: Dec 9, 2016 at 2:45:35 pm

Latest Report: Dec 9, 2016 at 2:00 pm


Visibility: 2 mi

Pressure: 29.59 "Hg

Humidity: 78%

Dew Point: -2 °F

Location of UfaLocation

Past Weather in Ufa — Graph

°F

Ufa Temperature Yesterday

Maximum temperature yesterday: -2 °F (at 12:00 am)
Minimum temperature yesterday: -18 °F (at 9:00 pm)
Average temperature yesterday: -9 °F

High & Low Weather Summary for the Past Weeks

 TemperatureHumidityPressure
High39 °F (Nov 29, 1:00 am)93% (Nov 25, 10:00 pm)30.27 "Hg (Nov 25, 10:00 pm)
Low-18 °F (Dec 8, 9:00 pm)54% (Nov 24, 1:00 pm)29.39 "Hg (Dec 3, 11:30 pm)
Average16 °F81%29.81 "Hg
* Reported Nov 24 1:00 pm — Dec 9 1:30 pm, Ufa, Weather by CustomWeather, © 2016

Note: Actual official high and low records may vary slightly from our data, if they occured in-between our weather recording intervals... More about our weather records

Advertising

Ufa Weather History for the Previous 24 Hours

Scroll right to see more
 ConditionsComfort  
Time TempWeatherWind HumidityBarometerVisibility
1:30 pm
Fri, Dec 9
3 °FFrigid.13 mph72%29.59 "Hg1 mi
1:00 pm1 °FLight snow. Overcast.10 mph78%29.59 "Hg1 mi
12:30 pm1 °FLight snow. Overcast.13 mph71%29.59 "Hg2 mi
12:00 pm0 °FLight snow. Overcast.10 mph78%29.62 "Hg1 mi
11:30 am0 °FLight snow. Overcast.13 mph71%29.62 "Hg1 mi
11:00 am0 °FLight snow. Overcast.17 mph71%29.62 "Hg2 mi
10:30 am0 °FLight snow. Overcast.15 mph71%29.62 "Hg2 mi
9:30 am-2 °FOvercast.15 mph71%29.65 "HgN/A
9:00 am-2 °FLight snow. Overcast.13 mph71%29.65 "Hg3 mi
8:30 am-2 °FLight snow. Overcast.13 mph71%29.65 "Hg3 mi
8:00 am-2 °FLight snow. Overcast.10 mph71%29.65 "Hg3 mi
7:30 am-4 °FLight snow. Overcast.13 mph77%29.68 "Hg3 mi
7:00 am-4 °FLight snow. Overcast.13 mph77%29.68 "Hg3 mi
6:30 am-4 °FLight snow. Overcast.10 mph71%29.68 "Hg3 mi
6:00 am-4 °FLight snow. Overcast.8 mph71%29.68 "Hg3 mi
5:30 am-4 °FLight snow. Overcast.10 mph71%29.71 "Hg3 mi
5:00 am-6 °FLight snow. Overcast.10 mph77%29.71 "Hg3 mi
4:30 am-6 °FLight snow. Overcast.13 mph77%29.71 "Hg3 mi
4:00 am-6 °FLight snow. Overcast.10 mph77%29.74 "Hg3 mi
3:30 am-8 °FOvercast.8 mph77%29.74 "HgN/A
3:00 am-9 °FOvercast.6 mph77%29.74 "HgN/A
2:30 am-9 °FOvercast.10 mph70%29.77 "HgN/A
2:00 am-9 °FOvercast.10 mph70%29.77 "HgN/A
1:30 am-11 °FOvercast.13 mph76%29.77 "HgN/A
1:00 am-11 °FOvercast.8 mph76%29.80 "HgN/A
12:30 am-11 °FOvercast.8 mph76%29.80 "HgN/A
12:00 am-13 °FPassing clouds.3 mph76%29.80 "HgN/A
11:30 pm
Thu, Dec 8
-15 °FPassing clouds.8 mph76%29.80 "HgN/A
11:00 pm-17 °FClear.6 mph76%29.83 "Hg10 mi
10:30 pm-18 °FClear.6 mph75%29.83 "Hg10 mi
10:00 pm-18 °FClear.3 mph75%29.83 "Hg10 mi
9:30 pm-18 °FClear.3 mph83%29.83 "Hg10 mi
9:00 pm-18 °FClear.3 mph75%29.86 "Hg10 mi
8:30 pm-17 °FClear.6 mph76%29.86 "Hg10 mi
8:00 pm-15 °FClear.3 mph76%29.86 "Hg10 mi
7:30 pm-17 °FClear.8 mph83%29.86 "Hg10 mi
7:00 pm-13 °FClear.8 mph76%29.86 "Hg10 mi
6:30 pm-13 °FClear.6 mph76%29.86 "Hg10 mi
6:00 pm-13 °FClear.3 mph76%29.89 "Hg10 mi
5:30 pm-9 °FSunny.6 mph70%29.89 "Hg10 mi
5:00 pm-11 °FSunny.8 mph76%29.89 "Hg10 mi
4:30 pm-9 °FSunny.10 mph70%29.89 "Hg10 mi
4:00 pm-8 °FSunny.8 mph70%29.89 "Hg10 mi
3:30 pm-8 °FSunny.6 mph70%29.89 "Hg10 mi
3:00 pm-8 °FPassing clouds.6 mph70%29.89 "HgN/A
2:30 pm-8 °FSunny.6 mph70%29.89 "Hg10 mi
2:00 pm-8 °FPassing clouds.6 mph70%29.89 "HgN/A
Weather by CustomWeather, © 2016

See weather overviewHow to use our weather pages